Weather History for Marshalltown, IA

Change the Weather History Date:

Monday, December 30, 2013

  Actual Average Record
Temperature  
Mean Temperature 0 °F 19 °F  
Max Temperature 9 °F 28 °F 57 °F (2004)
Min Temperature -10 °F 11 °F -10 °F (2013)
Degree Days  
Heating Degree Days 65 46  
Month to date heating degree days 1444 1269  
Since 1 July heating degree days 2939 2765  
Cooling Degree Days 0 0  
Month to date cooling degree days 0 0  
Year to date cooling degree days 872 728  
Moisture  
Dew Point -2 °F    
Average Humidity 84    
Maximum Humidity 100    
Minimum Humidity 68    
Precipitation  
Precipitation T in 0.03 in 0.63 in (2011)
Month to date precipitation 0.23 0.97  
Sea Level Pressure  
Sea Level Pressure 30.22 in    
Wind  
Wind Speed 6 mph (SE)    
Max Wind Speed 13 mph    
Max Gust Speed 15 mph    
Visibility 4 miles    
Events Fog , Snow    
T = Trace of Precipitation, MM = Missing Value Source: NWS Daily Summary

Daily Weather History Graph

Daily Weather History Graph

Search for Another Location

Airport:

Trip Planner

Search our weather history database for the weather conditions in past years. The results will help you decide how hot, cold, wet, or windy it might be!

Date:

Astronomy

Dec. 30, 2013 Rise Set
Actual Time 7:39 AM CST 4:49 PM CST
Civil Twilight 7:08 AM CST 5:20 PM CST
Nautical Twilight 6:32 AM CST 5:55 PM CST
Astronomical Twilight 5:58 AM CST 6:29 PM CST
Moon 5:29 AM CST (12/30) 3:23 PM CST (12/30)
Length of Visible Light 10h 12m
Length of Day
9h 09m
Waning Crescent, 4% of the Moon is Illuminated
Dec 30
Waning Crescent
Jan 1
New
Jan 7
First Quarter
Jan 15
Full
Jan 23
Last Quarter

Hourly Weather History & Observations

Time (CST) Temp. Windchill Dew Point Humidity Pressure Visibility Wind Dir Wind Speed Gust Speed Precip Events Conditions
12:53 AM -6.0 °F -16.9 °F -13.0 °F 72% 30.36 in 10.0 mi NNW 4.6 mph - N/A   Clear
1:53 AM -7.1 °F - -13.0 °F 75% 30.35 in 10.0 mi Calm Calm - N/A   Clear
2:53 AM -7.1 °F - -13.0 °F 75% 30.36 in 10.0 mi Calm Calm - N/A   Clear
3:53 AM -8.0 °F - -14.1 °F 75% 30.36 in 10.0 mi Calm Calm - N/A   Clear
4:53 AM -7.1 °F - -11.9 °F 79% 30.35 in 10.0 mi Calm Calm - N/A   Clear
5:53 AM -6.0 °F -14.7 °F -11.0 °F 79% 30.35 in 10.0 mi SSE 3.5 mph - N/A   Clear
6:53 AM -6.0 °F -20.1 °F -11.0 °F 79% 30.34 in 10.0 mi SE 6.9 mph - N/A   Clear
7:53 AM -4.0 °F -17.8 °F -9.9 °F 76% 30.34 in 10.0 mi SSE 6.9 mph - N/A   Overcast
8:53 AM -2.0 °F -18.7 °F -9.0 °F 72% 30.33 in 10.0 mi SSE 10.4 mph - N/A   Mostly Cloudy
9:53 AM 1.0 °F -14.0 °F -7.1 °F 69% 30.33 in 10.0 mi SSE 9.2 mph - N/A   Overcast
10:41 AM 1.9 °F -9.2 °F -5.1 °F 72% 30.25 in 2.0 mi South 5.8 mph - 0.00 in Snow Light Snow
10:49 AM 1.4 °F -9.9 °F -5.8 °F 72% 30.25 in 2.0 mi SSE 5.8 mph - 0.00 in Snow Light Snow
10:53 AM 1.9 °F -10.6 °F -4.0 °F 76% 30.33 in 2.0 mi SSE 6.9 mph - 0.00 in Snow Light Snow
11:04 AM 3.0 °F -9.3 °F -2.9 °F 76% 30.24 in 3.0 mi SSE 6.9 mph - 0.00 in Snow Light Snow
11:12 AM 3.0 °F -10.5 °F -2.9 °F 76% 30.23 in 2.5 mi SSE 8.1 mph - 0.00 in Snow Light Snow
11:31 AM 3.0 °F -11.5 °F -2.0 °F 80% 30.22 in 1.8 mi SSE 9.2 mph - 0.00 in Snow Light Snow
11:38 AM 3.9 °F -9.4 °F -2.0 °F 76% 30.21 in 2.0 mi SSE 8.1 mph - 0.00 in Snow Light Snow
11:53 AM 3.9 °F -10.4 °F -0.9 °F 80% 30.27 in 1.5 mi SE 9.2 mph - 0.00 in Snow Light Snow
12:42 PM 5.0 °F -9.1 °F -0.0 °F 80% 30.16 in 0.8 mi SE 9.2 mph - 0.00 in Snow Light Snow
12:51 PM 5.0 °F -6.9 °F -0.4 °F 78% 30.16 in 1.2 mi SE 6.9 mph - 0.00 in Snow Light Snow
12:53 PM 5.0 °F -6.9 °F 1.0 °F 84% 30.24 in 1.0 mi SE 6.9 mph - 0.00 in Snow Light Snow
1:01 PM 5.0 °F -8.1 °F 1.0 °F 84% 30.16 in 0.8 mi ESE 8.1 mph - 0.00 in Snow Light Snow
1:08 PM 5.0 °F -9.1 °F 1.0 °F 84% 30.15 in 0.8 mi ESE 9.2 mph - 0.00 in Snow Light Snow
1:20 PM 5.0 °F -8.1 °F 1.0 °F 84% 30.14 in 0.8 mi ESE 8.1 mph - 0.00 in Snow Light Snow
1:28 PM 5.0 °F -10.0 °F 1.0 °F 84% 30.14 in 0.8 mi ESE 10.4 mph - 0.00 in Snow Light Snow
1:53 PM 5.0 °F -11.6 °F 1.0 °F 84% 30.21 in 0.5 mi ESE 12.7 mph - 0.00 in Fog , Snow Snow
2:08 PM 6.1 °F -9.5 °F 1.9 °F 83% 30.11 in 1.0 mi ESE 11.5 mph - 0.00 in Snow Light Snow
2:23 PM 6.1 °F -9.5 °F 1.9 °F 83% 30.12 in 2.0 mi SE 11.5 mph - 0.00 in Snow Light Snow
2:31 PM 6.1 °F -8.7 °F 1.9 °F 83% 30.12 in 1.0 mi SE 10.4 mph - 0.00 in Snow Light Snow
2:39 PM 6.1 °F -7.8 °F 1.9 °F 83% 30.12 in 0.8 mi SE 9.2 mph - 0.00 in Snow Light Snow
2:53 PM 7.0 °F -6.6 °F 3.0 °F 84% 30.20 in 1.5 mi SE 9.2 mph - 0.00 in Snow Light Snow
2:58 PM 7.0 °F -8.3 °F 1.9 °F 80% 30.13 in 2.0 mi SSE 11.5 mph - 0.00 in Snow Light Snow
3:22 PM 7.0 °F -7.5 °F 3.0 °F 84% 30.12 in 1.8 mi SE 10.4 mph - 0.00 in Snow Light Snow
3:34 PM 7.0 °F -7.5 °F 3.0 °F 84% 30.13 in 1.8 mi SE 10.4 mph - 0.00 in Snow Light Snow
3:41 PM 7.0 °F -5.7 °F 3.0 °F 84% 30.13 in 3.0 mi SE 8.1 mph - 0.00 in Snow Light Snow
3:53 PM 7.0 °F -6.6 °F 3.0 °F 84% 30.22 in 2.5 mi SSE 9.2 mph - 0.00 in Snow Light Snow
3:57 PM 7.0 °F -7.5 °F 3.0 °F 84% 30.14 in 1.8 mi SSE 10.4 mph - 0.00 in Snow Light Snow
4:50 PM 6.8 °F -3.5 °F 3.2 °F 85% 30.15 in 0.8 mi SE 5.8 mph - 0.00 in Snow Light Snow
4:53 PM 7.0 °F -4.5 °F 3.9 °F 87% 30.23 in 0.8 mi SE 6.9 mph - 0.00 in Snow Light Snow
5:12 PM 7.0 °F -5.7 °F 3.9 °F 87% 30.14 in 1.5 mi SE 8.1 mph - 0.00 in Snow Light Snow
5:25 PM 7.0 °F -4.5 °F 3.9 °F 87% 30.14 in 2.5 mi SE 6.9 mph - 0.00 in Snow Light Snow
5:44 PM 7.0 °F -6.6 °F 3.9 °F 87% 30.12 in 4.0 mi SE 9.2 mph - 0.00 in Snow Light Snow
5:53 PM 7.0 °F -6.6 °F 3.9 °F 87% 30.20 in 4.0 mi SE 9.2 mph - 0.00 in Snow Light Snow
6:53 PM 8.1 °F -0.5 °F 5.0 °F 87% 30.22 in 5.0 mi SE 4.6 mph - 0.00 in Snow Light Snow
7:53 PM 8.1 °F 1.4 °F 5.0 °F 87% 30.23 in 3.0 mi East 3.5 mph - 0.00 in Snow Light Snow
8:53 PM 3.0 °F - 3.0 °F 100% 30.25 in 10.0 mi Calm Calm - 0.00 in   Scattered Clouds
8:59 PM 3.0 °F - 1.9 °F 95% 30.18 in 10.0 mi Calm Calm - N/A   Mostly Cloudy
9:27 PM 3.9 °F -5.3 °F 1.9 °F 91% 30.18 in 9.0 mi NW 4.6 mph - N/A   Overcast
9:53 PM 3.0 °F -8.0 °F 1.0 °F 91% 30.27 in 9.0 mi North 5.8 mph - N/A   Mostly Cloudy
10:00 PM 3.0 °F -8.0 °F 1.0 °F 91% 30.19 in 10.0 mi North 5.8 mph - N/A   Scattered Clouds
10:53 PM -2.0 °F -13.9 °F -2.0 °F 100% 30.29 in 9.0 mi NNW 5.8 mph - N/A   Clear
11:29 PM -5.1 °F -17.6 °F -7.1 °F 91% 30.21 in 1.8 mi WNW 5.8 mph - N/A   Clear
11:42 PM -2.9 °F -13.3 °F -5.1 °F 90% 30.21 in 0.5 mi WNW 4.6 mph - N/A Fog Light Freezing Fog
11:53 PM -2.9 °F -15.0 °F -5.1 °F 90% 30.28 in 0.5 mi WNW 5.8 mph - N/A Fog Light Freezing Fog